| time (UTC) | temp F | wind direction | speed knots | gust knots | rain 1hr in | rain 24hr in | rain mn in | humidity % | barometer mb |
| 20260906200106 | 72 | 0 | 0.0 | 2.6 | 0.00 | 0.00 | 0.00 | 64 | 1006.2 |
| 20260906194556 | 72 | 0 | 0.0 | 3.5 | 0.00 | 0.00 | 0.00 | 63 | 1006.1 |
| 20260906193106 | 72 | 0 | 0.0 | 5.2 | 0.00 | 0.00 | 0.00 | 62 | 1006.1 |
| 20260906191559 | 72 | 191 | 0.0 | 4.3 | 0.00 | 0.00 | 0.00 | 64 | 1006.2 |
| 20260906190143 | 72 | 0 | 0.0 | 2.6 | 0.00 | 0.00 | 0.00 | 63 | 1006.2 |
| 20260906184558 | 71 | 0 | 0.9 | 3.5 | 0.00 | 0.00 | 0.00 | 62 | 1006.3 |
| 20260906183106 | 71 | 60 | 0.0 | 2.6 | 0.00 | 0.00 | 0.00 | 65 | 1006.0 |
| 20260906181553 | 71 | 13 | 0.9 | 7.0 | 0.00 | 0.00 | 0.00 | 65 | 1006.3 |
| 20260906180100 | 71 | 92 | 0.9 | 7.8 | 0.00 | 0.00 | 0.00 | 64 | 1006.3 |
| 20260906174600 | 71 | 305 | 0.9 | 7.0 | 0.00 | 0.00 | 0.00 | 66 | 1006.4 |
| 20260906173102 | 71 | 0 | 0.9 | 6.1 | 0.00 | 0.00 | 0.00 | 68 | 1006.5 |
| 20260906171601 | 70 | 293 | 0.0 | 5.2 | 0.00 | 0.00 | 0.00 | 69 | 1006.6 |
| 20260906170100 | 70 | 313 | 0.9 | 5.2 | 0.00 | 0.00 | 0.00 | 69 | 1006.7 |
| 20260906164553 | 70 | 314 | 1.7 | 5.2 | 0.00 | 0.00 | 0.00 | 70 | 1006.7 |
| 20260906163101 | 70 | 300 | 0.9 | 6.1 | 0.00 | 0.00 | 0.00 | 70 | 1006.8 |
| 20260906161601 | 70 | 303 | 0.9 | 4.3 | 0.00 | 0.00 | 0.00 | 74 | 1006.7 |
| 20260906160100 | 70 | 84 | 0.9 | 2.6 | 0.00 | 0.00 | 0.00 | 74 | 1006.9 |
| 20260906154604 | 69 | 177 | 1.7 | 5.2 | 0.00 | 0.00 | 0.00 | 72 | 1007.1 |
| 20260906153057 | 69 | 0 | 0.0 | 2.6 | 0.00 | 0.00 | 0.00 | 76 | 1006.9 |
| 20260906151601 | 66 | 334 | 0.0 | 1.7 | 0.00 | 0.00 | 0.00 | 82 | 1007.1 |
| 20260906150101 | 65 | 0 | 0.0 | 2.6 | 0.00 | 0.00 | 0.00 | 84 | 1007.1 |
| 20260906144602 | 65 | 0 | 0.0 | 1.7 | 0.00 | 0.00 | 0.00 | 86 | 1007.2 |
| 20260906143057 | 64 | 0 | 0.0 | 3.5 | 0.00 | 0.00 | 0.00 | 87 | 1006.9 |
| 20260906141553 | 63 | 0 | 0.0 | 1.7 | 0.00 | 0.00 | 0.00 | 88 | 1006.8 |
| 20260906134558 | 63 | 287 | 0.9 | 3.5 | 0.00 | 0.00 | 0.00 | 89 | 1006.8 |
| 20260906133116 | 62 | 324 | 0.9 | 5.2 | 0.00 | 0.00 | 0.00 | 89 | 1006.8 |
| 20260906131600 | 62 | 0 | 0.0 | 6.1 | 0.00 | 0.00 | 0.00 | 90 | 1006.6 |
| 20260906130110 | 62 | 299 | 0.0 | 5.2 | 0.00 | 0.00 | 0.00 | 91 | 1006.7 |
| 20260906124557 | 61 | 0 | 0.0 | 3.5 | 0.00 | 0.00 | 0.00 | 92 | 1006.4 |
| 20260906123057 | 61 | 347 | 0.0 | 1.7 | 0.00 | 0.00 | 0.00 | 92 | 1006.5 |
| 20260906121558 | 61 | 0 | 0.0 | 2.6 | 0.00 | 0.00 | 0.00 | 92 | 1006.5 |
| 20260906120054 | 60 | 291 | 0.0 | 0.0 | 0.00 | 0.00 | 0.00 | 92 | 1006.2 |
| 20260906114559 | 60 | 0 | 0.0 | 0.0 | 0.00 | 0.00 | 0.00 | 91 | 1006.2 |
| 20260906113101 | 60 | 0 | 0.0 | 0.0 | 0.00 | 0.00 | 0.00 | 91 | 1006.0 |
| 20260906111559 | 60 | 0 | 0.0 | 0.0 | 0.00 | 0.00 | 0.00 | 90 | 1005.8 |
| 20260906104557 | 60 | 0 | 0.0 | 5.2 | 0.00 | 0.00 | 0.00 | 90 | 1005.4 |
| 20260906103056 | 60 | 324 | 0.9 | 2.6 | 0.00 | 0.00 | 0.00 | 90 | 1005.1 |
| 20260906101556 | 61 | 320 | 0.0 | 1.7 | 0.00 | 0.00 | 0.00 | 89 | 1004.9 |
| 20260906100053 | 61 | 334 | 0.0 | 2.6 | 0.00 | 0.00 | 0.00 | 88 | 1004.7 |
| 20260906094607 | 61 | 0 | 0.0 | 2.6 | 0.00 | 0.00 | 0.00 | 88 | 1004.5 |
| 20260906093112 | 62 | 307 | 0.0 | 2.6 | 0.00 | 0.00 | 0.00 | 87 | 1004.7 |
| 20260906091554 | 62 | 0 | 0.0 | 0.9 | 0.00 | 0.00 | 0.00 | 86 | 1004.4 |
| 20260906090138 | 62 | 0 | 0.0 | 1.7 | 0.00 | 0.00 | 0.00 | 86 | 1004.3 |
| 20260906084616 | 63 | 338 | 0.0 | 1.7 | 0.00 | 0.00 | 0.00 | 85 | 1004.3 |
| 20260906083057 | 63 | 0 | 0.9 | 2.6 | 0.00 | 0.00 | 0.00 | 85 | 1004.2 |
| 20260906081600 | 63 | 308 | 0.9 | 3.5 | 0.00 | 0.00 | 0.00 | 84 | 1004.3 |
| 20260906080105 | 63 | 0 | 0.0 | 3.5 | 0.00 | 0.00 | 0.00 | 84 | 1004.1 |
| 20260906074602 | 63 | 312 | 0.9 | 3.5 | 0.00 | 0.00 | 0.00 | 83 | 1004.4 |
| 20260906073055 | 64 | 0 | 0.0 | 2.6 | 0.00 | 0.00 | 0.00 | 83 | 1004.2 |
| 20260906071557 | 64 | 0 | 0.0 | 0.0 | 0.00 | 0.00 | 0.00 | 82 | 1004.0 |
| 20260906064602 | 65 | 0 | 0.0 | 0.0 | 0.00 | 0.00 | 0.00 | 80 | 1004.1 |
| 20260906063059 | 66 | 0 | 0.0 | 2.6 | 0.00 | 0.00 | 0.00 | 78 | 1004.0 |
| 20260906061607 | 66 | 0 | 0.0 | 3.5 | 0.00 | 0.00 | 0.00 | 78 | 1004.0 |
| 20260906060103 | 66 | 22 | 0.9 | 5.2 | 0.00 | 0.00 | 0.00 | 77 | 1004.0 |
| 20260906054607 | 66 | 318 | 2.6 | 6.1 | 0.00 | 0.00 | 0.00 | 78 | 1004.0 |
| 20260906053119 | 65 | 335 | 2.6 | 7.8 | 0.00 | 0.00 | 0.00 | 79 | 1004.2 |
| 20260906051600 | 65 | 314 | 2.6 | 7.0 | 0.00 | 0.00 | 0.00 | 79 | 1004.2 |
| 20260906050059 | 65 | 330 | 0.9 | 4.3 | 0.00 | 0.00 | 0.00 | 80 | 1004.3 |
| 20260906044604 | 65 | 300 | 0.9 | 2.6 | 0.00 | 0.00 | 0.00 | 80 | 1004.3 |
| 20260906043058 | 66 | 299 | 2.6 | 7.0 | 0.00 | 0.00 | 0.00 | 79 | 1004.2 |
| 20260906041558 | 66 | 83 | 1.7 | 7.0 | 0.00 | 0.00 | 0.00 | 79 | 1004.3 |
| 20260906040055 | 66 | 0 | 0.9 | 3.5 | 0.00 | 0.00 | 0.00 | 79 | 1004.0 |
| 20260906034557 | 66 | 0 | 0.0 | 3.5 | 0.00 | 0.00 | 0.00 | 78 | 1004.1 |
| 20260906033059 | 66 | 0 | 0.0 | 4.3 | 0.00 | 0.00 | 0.00 | 79 | 1004.1 |
| 20260906031553 | 65 | 333 | 0.0 | 3.5 | 0.00 | 0.00 | 0.00 | 80 | 1003.9 |
| 20260906030055 | 64 | 317 | 0.9 | 3.5 | 0.00 | 0.00 | 0.00 | 81 | 1003.8 |
| 20260906024612 | 64 | 0 | 0.0 | 0.0 | 0.00 | 0.00 | 0.00 | 83 | 1003.9 |
| 20260906023104 | 64 | 0 | 0.0 | 0.0 | 0.00 | 0.00 | 0.00 | 82 | 1003.9 |
| 20260906021555 | 64 | 0 | 0.0 | 0.0 | 0.00 | 0.00 | 0.00 | 82 | 1004.0 |
| 20260906020105 | 64 | 0 | 0.0 | 0.0 | 0.00 | 0.00 | 0.00 | 81 | 1003.8 |
| 20260906014559 | 65 | 0 | 0.0 | 0.0 | 0.00 | 0.00 | 0.00 | 81 | 1003.7 |
| 20260906013058 | 65 | 0 | 0.0 | 0.0 | 0.00 | 0.00 | 0.00 | 81 | 1003.6 |
| 20260906011604 | 66 | 0 | 0.0 | 0.0 | 0.00 | 0.00 | 0.00 | 80 | 1003.7 |
| 20260906010131 | 66 | 0 | 0.0 | 1.7 | 0.00 | 0.00 | 0.00 | 79 | 1003.5 |
| 20260906004555 | 67 | 0 | 0.0 | 2.6 | 0.00 | 0.00 | 0.00 | 79 | 1003.3 |
| 20260906003101 | 67 | 0 | 0.9 | 1.7 | 0.00 | 0.00 | 0.00 | 78 | 1003.0 |
| 20260906001606 | 68 | 0 | 0.0 | 2.6 | 0.00 | 0.00 | 0.00 | 79 | 1003.1 |
| 20260906000101 | 68 | 0 | 0.0 | 1.7 | 0.00 | 0.00 | 0.00 | 79 | 1003.0 |
| 20260905234600 | 68 | 0 | 0.0 | 3.5 | 0.00 | 0.00 | 0.00 | 78 | 1003.1 |
| 20260905233055 | 68 | 0 | 0.0 | 2.6 | 0.00 | 0.00 | 0.00 | 79 | 1002.8 |
| 20260905231559 | 68 | 0 | 0.0 | 2.6 | 0.00 | 0.00 | 0.00 | 80 | 1002.7 |
| 20260905230108 | 68 | 345 | 0.0 | 1.7 | 0.00 | 0.00 | 0.00 | 80 | 1002.7 |
| 20260905224603 | 69 | 0 | 0.0 | 0.0 | 0.00 | 0.00 | 0.00 | 80 | 1002.6 |
| 20260905223053 | 70 | 0 | 0.0 | 1.7 | 0.00 | 0.00 | 0.00 | 79 | 1002.8 |
| 20260905221557 | 70 | 0 | 0.0 | 1.7 | 0.00 | 0.00 | 0.00 | 77 | 1002.6 |
| 20260905220057 | 71 | 343 | 0.0 | 0.9 | 0.00 | 0.00 | 0.00 | 77 | 1002.5 |
| 20260905214600 | 72 | 0 | 0.0 | 2.6 | 0.00 | 0.00 | 0.00 | 75 | 1002.6 |
| 20260905213105 | 72 | 0 | 0.0 | 0.0 | 0.00 | 0.00 | 0.00 | 76 | 1002.3 |
| 20260905211603 | 73 | 0 | 0.0 | 2.6 | 0.00 | 0.00 | 0.00 | 75 | 1002.2 |
| 20260905210104 | 73 | 262 | 0.0 | 3.5 | 0.00 | 0.00 | 0.00 | 71 | 1002.1 |
| 20260905204607 | 74 | 0 | 0.0 | 3.5 | 0.00 | 0.00 | 0.00 | 73 | 1002.0 |
| 20260905203104 | 74 | 0 | 0.0 | 1.7 | 0.00 | 0.00 | 0.00 | 71 | 1001.7 |
| 20260905201609 | 73 | 0 | 0.0 | 2.6 | 0.00 | 0.00 | 0.00 | 71 | 1001.8 |